| time (UTC) | temp F | wind direction | speed MPH | gust MPH | rain 1hr in | rain 24hr in | rain mn in | humidity % | barometer mb |
| 20260831013035 | 75 | 156 | 7.0 | 13.0 | 0.00 | 0.00 | 0.00 | 86 | 1006.4 |
| 20260831011531 | 76 | 163 | 8.0 | 16.0 | 0.00 | 0.00 | 0.00 | 85 | 1006.3 |
| 20260831010011 | 76 | 184 | 8.0 | 16.0 | 0.00 | 0.00 | 0.00 | 85 | 1006.1 |
| 20260831004508 | 77 | 168 | 7.0 | 15.0 | 0.00 | 0.00 | 0.00 | 83 | 1006.1 |
| 20260831003050 | 78 | 142 | 9.0 | 16.0 | 0.00 | 0.00 | 0.00 | 81 | 1006.1 |
| 20260831001546 | 79 | 187 | 8.0 | 15.0 | 0.00 | 0.00 | 0.00 | 83 | 1006.1 |
| 20260831000027 | 79 | 184 | 7.0 | 16.0 | 0.00 | 0.00 | 0.00 | 83 | 1006.0 |
| 20260830234537 | 80 | 162 | 11.0 | 18.0 | 0.00 | 0.00 | 0.00 | 81 | 1005.9 |
| 20260830233003 | 81 | 153 | 8.0 | 15.0 | 0.00 | 0.00 | 0.00 | 80 | 1005.7 |
| 20260830231601 | 81 | 161 | 9.0 | 16.0 | 0.00 | 0.00 | 0.00 | 78 | 1005.7 |
| 20260830230042 | 82 | 182 | 10.0 | 15.0 | 0.00 | 0.00 | 0.00 | 78 | 1005.7 |
| 20260830224548 | 83 | 164 | 9.0 | 14.0 | 0.00 | 0.00 | 0.00 | 77 | 1005.5 |
| 20260830223024 | 83 | 150 | 8.0 | 14.0 | 0.00 | 0.00 | 0.00 | 78 | 1005.5 |
| 20260830221529 | 83 | 176 | 8.0 | 14.0 | 0.00 | 0.00 | 0.00 | 77 | 1005.5 |
| 20260830220005 | 84 | 185 | 10.0 | 15.0 | 0.00 | 0.00 | 0.00 | 74 | 1005.2 |
| 20260830214505 | 84 | 187 | 11.0 | 16.0 | 0.00 | 0.00 | 0.00 | 74 | 1005.2 |
| 20260830213045 | 83 | 190 | 9.0 | 17.0 | 0.00 | 0.00 | 0.00 | 77 | 1005.4 |
| 20260830211543 | 83 | 131 | 9.0 | 17.0 | 0.00 | 0.00 | 0.00 | 76 | 1005.6 |
| 20260830210027 | 83 | 175 | 9.0 | 14.0 | 0.00 | 0.00 | 0.00 | 76 | 1005.7 |
| 20260830204536 | 82 | 176 | 10.0 | 17.0 | 0.00 | 0.00 | 0.00 | 75 | 1005.8 |
| 20260830203009 | 83 | 229 | 10.0 | 17.0 | 0.00 | 0.00 | 0.00 | 71 | 1005.8 |
| 20260830201508 | 84 | 233 | 13.0 | 20.0 | 0.00 | 0.00 | 0.00 | 70 | 1005.8 |
| 20260830200010 | 83 | 146 | 7.0 | 18.0 | 0.00 | 0.00 | 0.00 | 74 | 1005.8 |
| 20260830194505 | 84 | 170 | 9.0 | 17.0 | 0.00 | 0.00 | 0.00 | 75 | 1005.7 |
| 20260830193002 | 85 | 192 | 8.0 | 17.0 | 0.00 | 0.00 | 0.00 | 73 | 1005.8 |
| 20260830191502 | 85 | 169 | 8.0 | 15.0 | 0.00 | 0.00 | 0.00 | 71 | 1005.8 |
| 20260830190100 | 85 | 184 | 8.0 | 14.0 | 0.00 | 0.00 | 0.00 | 71 | 1005.9 |
| 20260830184559 | 84 | 191 | 11.0 | 16.0 | 0.00 | 0.00 | 0.00 | 71 | 1005.7 |
| 20260830183040 | 84 | 179 | 11.0 | 16.0 | 0.00 | 0.00 | 0.00 | 72 | 1005.9 |
| 20260830181538 | 84 | 219 | 9.0 | 17.0 | 0.00 | 0.00 | 0.00 | 71 | 1006.0 |
| 20260830180023 | 85 | 144 | 9.0 | 16.0 | 0.00 | 0.00 | 0.00 | 74 | 1005.9 |
| 20260830174521 | 84 | 188 | 5.0 | 11.0 | 0.00 | 0.00 | 0.00 | 76 | 1006.0 |
| 20260830173017 | 84 | 169 | 6.0 | 11.0 | 0.00 | 0.00 | 0.00 | 70 | 1005.9 |
| 20260830171516 | 85 | 169 | 6.0 | 15.0 | 0.00 | 0.00 | 0.00 | 73 | 1006.0 |
| 20260830170014 | 84 | 207 | 4.0 | 6.0 | 0.00 | 0.00 | 0.00 | 72 | 1006.2 |
| 20260830164533 | 82 | 219 | 1.0 | 9.0 | 0.00 | 0.00 | 0.00 | 75 | 1006.4 |
| 20260830163011 | 82 | 221 | 7.0 | 13.0 | 0.00 | 0.00 | 0.00 | 76 | 1006.9 |
| 20260830161511 | 81 | 185 | 4.0 | 17.0 | 0.00 | 0.00 | 0.00 | 79 | 1007.0 |
| 20260830160051 | 80 | 205 | 10.0 | 16.0 | 0.00 | 0.00 | 0.00 | 78 | 1007.1 |
| 20260830154554 | 79 | 203 | 10.0 | 15.0 | 0.00 | 0.00 | 0.00 | 79 | 1007.1 |
| 20260830153032 | 79 | 195 | 7.0 | 17.0 | 0.00 | 0.00 | 0.00 | 80 | 1006.5 |
| 20260830151534 | 78 | 198 | 9.0 | 15.0 | 0.00 | 0.00 | 0.00 | 81 | 1006.3 |
| 20260830150021 | 78 | 207 | 9.0 | 14.0 | 0.00 | 0.00 | 0.00 | 81 | 1006.1 |
| 20260830144514 | 77 | 201 | 7.0 | 11.0 | 0.00 | 0.00 | 0.00 | 83 | 1006.1 |
| 20260830143117 | 76 | 205 | 5.0 | 11.0 | 0.00 | 0.00 | 0.00 | 84 | 1006.0 |
| 20260830141555 | 76 | 212 | 7.0 | 11.0 | 0.00 | 0.01 | 0.00 | 83 | 1006.0 |
| 20260830140101 | 76 | 199 | 8.0 | 13.0 | 0.00 | 0.01 | 0.00 | 84 | 1005.9 |
| 20260830134541 | 74 | 174 | 5.0 | 10.0 | 0.00 | 0.01 | 0.00 | 87 | 1006.1 |
| 20260830133040 | 74 | 165 | 4.0 | 9.0 | 0.00 | 0.01 | 0.00 | 87 | 1006.3 |
| 20260830131543 | 73 | 197 | 7.0 | 10.0 | 0.00 | 0.02 | 0.00 | 87 | 1006.5 |
| 20260830130040 | 0 | 0.0 | 0.0 | 0.00 | 0.02 | 0.00 | 1006.4 | ||
| 20260830124538 | 0 | 0.0 | 0.0 | 0.00 | 0.02 | 0.00 | 1006.4 | ||
| 20260830123041 | 0 | 0.0 | 0.0 | 0.00 | 0.02 | 0.00 | 1006.3 | ||
| 20260830121532 | 0 | 0.0 | 0.0 | 0.00 | 0.02 | 0.00 | 1006.2 | ||
| 20260830120028 | 0 | 0.0 | 0.0 | 0.00 | 0.02 | 0.00 | 1006.1 | ||
| 20260830114509 | 0 | 0.0 | 0.0 | 0.00 | 0.02 | 0.00 | 1006.1 | ||
| 20260830113002 | 0 | 0.0 | 0.0 | 0.00 | 0.02 | 0.00 | 1006.0 | ||
| 20260830111541 | 0 | 0.0 | 0.0 | 0.00 | 0.02 | 0.00 | 1006.2 | ||
| 20260830110037 | 0 | 0.0 | 0.0 | 0.00 | 0.02 | 0.00 | 1006.2 | ||
| 20260830104515 | 0 | 0.0 | 0.0 | 0.00 | 0.02 | 0.00 | 1006.2 | ||
| 20260830103012 | 0 | 0.0 | 0.0 | 0.00 | 0.02 | 0.00 | 1006.4 | ||
| 20260830101550 | 0 | 0.0 | 0.0 | 0.00 | 0.12 | 0.00 | 1006.4 | ||
| 20260830100108 | 68 | 141 | 1.0 | 3.0 | 0.00 | 0.12 | 0.00 | 68 | 1006.7 |
| 20260830094532 | 69 | 121 | 1.0 | 4.0 | 0.00 | 0.12 | 0.00 | 67 | 1006.8 |
| 20260830093032 | 69 | 143 | 1.0 | 3.0 | 0.00 | 0.12 | 0.00 | 69 | 1006.8 |
| 20260830091534 | 69 | 126 | 1.0 | 3.0 | 0.00 | 0.23 | 0.00 | 68 | 1006.8 |
| 20260830090031 | 69 | 146 | 2.0 | 6.0 | 0.00 | 0.23 | 0.00 | 70 | 1006.5 |
| 20260830084629 | 69 | 120 | 2.0 | 6.0 | 0.00 | 0.23 | 0.00 | 68 | 1006.5 |
| 20260830083029 | 69 | 146 | 3.0 | 6.0 | 0.00 | 0.23 | 0.00 | 68 | 1006.3 |
| 20260830081528 | 70 | 136 | 3.0 | 6.0 | 0.00 | 0.27 | 0.00 | 70 | 1006.4 |
| 20260830080027 | 70 | 153 | 2.0 | 5.0 | 0.00 | 0.27 | 0.00 | 71 | 1006.6 |
| 20260830074514 | 70 | 120 | 1.0 | 6.0 | 0.00 | 0.27 | 0.00 | 74 | 1006.6 |
| 20260830073019 | 70 | 157 | 3.0 | 6.0 | 0.00 | 0.27 | 0.00 | 71 | 1006.7 |
| 20260830071517 | 70 | 172 | 3.0 | 7.0 | 0.00 | 0.32 | 0.00 | 71 | 1006.8 |
| 20260830070013 | 70 | 138 | 3.0 | 8.0 | 0.00 | 0.32 | 0.00 | 70 | 1006.9 |
| 20260830064513 | 70 | 161 | 4.0 | 7.0 | 0.00 | 0.32 | 0.00 | 70 | 1006.9 |
| 20260830063012 | 70 | 182 | 4.0 | 10.0 | 0.00 | 0.32 | 0.00 | 70 | 1006.8 |
| 20260830061511 | 70 | 148 | 5.0 | 10.0 | 0.00 | 0.32 | 0.00 | 70 | 1006.7 |
| 20260830060008 | 70 | 137 | 5.0 | 8.0 | 0.00 | 0.32 | 0.00 | 69 | 1007.0 |
| 20260830054550 | 69 | 136 | 3.0 | 6.0 | 0.00 | 0.32 | 0.00 | 70 | 1007.2 |
| 20260830053055 | 70 | 143 | 1.0 | 4.0 | 0.00 | 0.32 | 0.00 | 73 | 1007.6 |
| 20260830051536 | 70 | 154 | 2.0 | 6.0 | 0.00 | 0.32 | 0.00 | 74 | 1007.6 |
| 20260830050032 | 70 | 181 | 3.0 | 5.0 | 0.00 | 0.32 | 0.00 | 73 | 1007.6 |
| 20260830044512 | 69 | 129 | 1.0 | 6.0 | 0.00 | 0.32 | 0.00 | 75 | 1007.4 |
| 20260830043012 | 70 | 122 | 3.0 | 8.0 | 0.00 | 0.32 | 0.00 | 78 | 1007.3 |
| 20260830041512 | 70 | 186 | 3.0 | 6.0 | 0.00 | 0.32 | 0.00 | 79 | 1007.4 |
| 20260830040010 | 70 | 141 | 4.0 | 8.0 | 0.00 | 0.32 | 0.00 | 80 | 1007.5 |
| 20260830034508 | 70 | 126 | 4.0 | 9.0 | 0.00 | 0.32 | 0.00 | 82 | 1007.5 |
| 20260830033007 | 70 | 124 | 3.0 | 9.0 | 0.00 | 0.32 | 0.00 | 83 | 1007.7 |
| 20260830031505 | 70 | 151 | 6.0 | 12.0 | 0.00 | 0.32 | 0.00 | 83 | 1007.6 |
| 20260830030004 | 70 | 133 | 4.0 | 9.0 | 0.00 | 0.32 | 0.00 | 84 | 1007.8 |
| 20260830024544 | 70 | 128 | 4.0 | 7.0 | 0.00 | 0.32 | 0.00 | 84 | 1007.9 |
| 20260830023100 | 71 | 146 | 4.0 | 7.0 | 0.00 | 0.32 | 0.00 | 85 | 1007.7 |
| 20260830021525 | 71 | 136 | 4.0 | 10.0 | 0.00 | 0.32 | 0.00 | 86 | 1007.7 |
| 20260830020027 | 72 | 123 | 3.0 | 10.0 | 0.00 | 0.32 | 0.00 | 86 | 1007.5 |